Location: Killam
(52.7910°N, 111.8608°W)
Time: 13:45:56
(UTC+00:00)

Oscar 11 - Pass Details

Date: 20 March 2026
Orbit: 590 x 602 km, 97.8° (Epoch: 18 April)

Event Time Altitude Azimuth Distance (km) Brightness Sun altitude
Rises 12:01:33 0° 8° (N) 2,841 10.8 -13.9°
Reaches altitude 10° 12:03:51 10° 359° (N) 1,934 9.8 -13.6°
Maximum altitude 12:07:39 34° 295° (WNW) 984 7.7 -13.0°
Enters shadow 12:10:00 19° 242° (WSW) 1,428 8.3 -12.7°
